Wind_Speed
30 30 29 28 27 26 26 25 25 24 24 22 20 19 18 18 17 17 14 13 12 11 12 13 13 14 15 15 16 16 17 17 17 18 17 16 16 16 16 16 16 16 16 17
30 31 31 30 28 28 28 28 26 25 24 23 21 20 20 20 20 19 18 16 16 16 15 14 15 15 16 17 17 18 18 18 18 19 18 17 16 17 18 18 18 17 18 18
32 32 32 32 30 29 28 28 28 27 26 25 23 22 22 23 22 21 20 20 20 19 18 17 17 17 18 18 19 19 19 19 19 19 18 17 17 18 19 19 19 19 19 19
34 33 33 32 30 31 30 30 30 30 28 27 26 24 22 22 22 22 22 21 21 21 21 19 19 19 19 20 21 20 21 21 21 21 20 19 19 19 20 20 20 20 20 21
35 36 35 34 32 33 32 31 30 31 30 30 28 27 25 23 23 24 23 22 22 22 22 22 21 21 21 21 22 22 22 21 21 21 21 20 20 21 20 21 21 20 21 20
35 36 37 35 34 34 34 34 32 31 31 30 29 29 26 25 25 26 26 25 25 25 24 23 22 23 23 23 22 22 21 21 21 21 21 21 21 21 21 22 22 21 21 21
35 36 36 35 35 35 36 35 33 33 33 31 31 28 27 27 27 27 28 27 26 25 24 23 23 24 24 23 23 23 23 23 23 22 22 22 22 22 22 23 24 23 23 22
34 35 35 34 34 35 35 35 34 34 33 32 31 30 30 30 29 28 27 26 26 26 25 24 25 25 24 24 24 24 25 24 24 24 24 24 24 25 25 25 25 25 24 24
35 35 34 33 33 34 35 35 34 33 33 32 31 31 31 31 30 30 29 26 26 27 26 25 25 25 25 25 26 26 26 26 25 26 26 27 26 26 27 26 26 26 25 24
35 35 35 34 34 35 36 36 35 33 33 33 32 32 32 32 31 30 29 27 27 26 26 26 26 26 26 26 27 27 28 27 26 27 27 28 28 28 28 27 26 26 25 25
34 34 34 34 35 36 34 33 33 33 32 32 32 32 33 33 31 30 31 31 29 29 29 29 28 28 28 29 29 29 29 30 28 28 28 29 29 28 28 27 26 25 25 25
35 34 34 33 33 34 34 33 32 33 33 32 33 33 34 34 34 33 33 33 32 30 30 30 30 30 30 30 30 30 30 31 31 29 29 29 28 28 28 28 27 27 26 26
35 35 35 34 33 34 35 34 33 33 33 33 34 34 35 34 33 33 34 33 32 32 32 31 31 31 31 31 32 32 32 33 33 31 30 29 29 28 28 28 29 28 28 27
35 35 35 34 33 33 34 34 34 34 34 34 34 33 34 34 34 34 34 33 33 33 33 32 32 31 32 33 33 34 33 33 33 32 32 30 29 28 29 29 29 29 28 26
35 35 35 34 33 34 34 34 34 33 33 34 34 34 34 34 33 33 33 33 32 32 32 32 32 32 33 34 34 34 34 33 32 32 32 30 29 29 29 29 29 28 28 27
34 34 35 34 34 33 34 34 35 33 33 32 33 33 33 34 33 32 32 31 31 31 31 32 32 33 33 33 33 33 32 32 32 31 31 30 29 29 29 29 29 29 28 28
33 32 32 33 33 32 33 34 33 31 31 32 32 33 33 32 32 31 30 30 30 30 31 32 31 32 32 31 31 31 30 30 31 31 30 29 29 29 29 29 29 29 28 28
30 30 30 30 30 30 30 30 30 30 30 31 30 29 30 31 31 31 30 30 30 30 30 30 30 31 31 31 31 30 30 30 30 29 29 29 29 29 28 28 28 28 27 26
27 28 29 28 26 27 30 30 29 29 28 28 28 28 29 30 31 31 29 29 29 29 30 30 30 31 31 30 29 30 30 30 30 30 29 29 29 29 28 28 28 27 27 26
25 27 28 27 27 26 27 26 25 25 25 26 27 28 28 28 28 28 28 28 28 27 28 28 28 28 27 28 29 29 30 30 29 29 28 28 28 29 29 28 28 27 26 26
24 25 25 24 25 25 25 24 23 23 24 25 25 26 27 27 27 27 27 27 27 27 27 27 27 27 27 28 28 28 28 28 28 27 28 27 27 28 28 28 27 27 26 27
21 22 22 22 24 24 23 23 22 22 23 23 23 24 25 26 26 26 26 27 27 27 27 27 27 28 28 28 28 28 28 28 27 27 27 27 27 28 28 28 27 26 27 28
18 19 19 19 19 20 20 20 20 21 21 22 22 23 24 24 24 24 25 26 26 27 27 27 27 27 27 27 27 27 27 27 27 27 28 27 27 27 27 27 27 27 27 27
16 15 16 17 18 18 18 19 19 20 21 21 21 22 23 22 22 23 24 24 25 25 26 26 26 27 27 27 26 26 27 28 28 29 28 28 27 27 27 27 27 27 27 27
15 14 14 15 16 17 18 18 19 20 20 20 20 20 20 20 20 21 22 22 22 23 23 24 25 25 26 27 26 27 28 29 29 28 28 28 28 28 28 28 28 27 27 28
14 13 13 14 14 14 15 16 17 17 17 17 17 17 17 18 19 19 20 20 21 21 22 22 23 24 25 25 26 27 28 29 29 28 28 28 28 28 28 28 28 27 27 27
11 12 12 12 12 12 13 14 15 16 16 16 17 17 18 18 19 20 21 21 21 22 22 23 23 24 24 25 26 26 26 26 26 26 27 28 28 28 28 28 28 28 28 28
Wind_Direction
230 230 230 234 235 238 242 245 248 252 256 260 265 269 271 278 283 286 283 281 286 293 298 298 301 303 304 308 312 315 317 319 321 323 323 322 322 322 321 322 324 322 322 322
233 233 233 235 236 239 243 244 248 252 256 259 263 266 274 279 284 286 277 274 282 289 292 293 295 297 298 301 307 312 315 315 318 320 321 322 322 320 320 319 320 319 318 319
234 234 233 233 236 238 240 242 246 250 255 259 264 267 272 276 280 281 279 275 281 283 288 287 289 292 295 297 300 305 309 311 313 316 316 317 319 318 318 317 316 315 315 316
236 233 234 234 233 237 240 244 248 252 254 258 263 268 272 274 276 278 280 278 279 281 283 280 280 285 289 292 295 299 303 305 309 313 313 312 311 312 313 314 315 314 314 314
236 234 235 234 234 237 241 245 250 253 255 258 260 265 267 270 272 275 277 277 280 283 282 279 278 281 285 288 291 297 299 302 306 308 308 307 309 309 309 313 315 313 312 311
236 237 237 236 236 239 242 246 248 252 254 257 259 263 264 267 270 273 274 275 277 280 280 277 277 279 281 287 290 294 299 301 302 304 302 302 303 306 307 309 312 314 313 312
237 238 239 238 237 239 243 246 248 251 255 257 259 262 266 267 269 272 273 274 276 277 275 278 279 280 281 284 289 291 294 297 299 300 300 301 301 303 305 307 308 310 311 311
237 241 243 241 239 241 245 247 248 251 255 257 260 262 264 266 267 269 271 274 276 277 276 277 278 279 281 283 285 287 289 291 294 298 299 300 299 301 303 303 304 305 306 306
240 243 246 246 244 244 246 248 249 253 255 257 260 262 264 266 267 267 271 274 278 280 276 277 277 277 278 281 282 284 287 290 294 296 297 298 298 298 299 300 300 302 302 302
242 245 247 247 246 247 248 249 251 252 254 256 258 262 264 266 268 269 270 272 277 277 276 275 275 274 275 279 282 283 285 286 289 292 294 295 296 297 298 298 299 299 299 299
242 245 249 249 248 248 251 253 253 252 253 255 256 260 263 266 268 269 272 273 275 275 273 274 274 275 276 279 281 281 284 286 286 290 292 293 294 296 297 298 298 298 297 297
243 247 251 252 252 252 252 253 254 254 254 255 256 259 262 265 266 267 269 272 273 273 274 275 274 274 277 279 280 281 283 286 286 287 289 290 292 293 295 295 296 297 296 295
245 247 250 252 253 253 252 253 254 253 253 255 257 259 262 264 264 265 268 269 270 269 270 272 272 274 276 277 279 281 283 285 286 287 287 288 288 289 291 292 293 294 294 293
246 248 250 252 253 252 252 253 253 253 253 255 258 261 263 264 266 266 267 267 267 268 270 270 270 273 275 277 279 281 283 284 285 286 286 285 286 287 288 290 291 291 292 292
247 249 251 252 251 250 250 250 252 252 251 254 257 262 264 264 267 267 266 266 265 266 269 270 270 273 276 277 278 280 281 283 283 285 285 283 284 285 287 289 290 291 289 290
246 249 250 251 249 251 251 251 251 251 253 256 259 262 264 263 265 267 266 265 266 268 269 271 274 276 277 278 278 279 281 282 283 284 284 282 282 284 285 286 288 288 288 288
250 252 252 251 250 252 254 254 251 252 254 256 258 261 263 265 265 266 266 265 267 269 270 272 274 275 276 276 277 278 280 281 283 284 283 282 282 283 284 285 286 287 287 288
251 252 250 250 251 251 253 252 252 255 256 258 259 261 262 265 268 268 269 267 269 270 271 272 273 275 275 275 276 278 279 281 283 284 283 283 282 283 284 285 287 287 288 289
251 252 252 251 251 253 254 253 254 255 256 259 262 262 263 266 268 267 268 269 270 271 271 272 274 275 275 273 274 276 278 281 282 283 283 283 283 285 285 285 285 286 286 287
253 254 255 252 251 254 254 255 257 256 257 260 263 265 265 267 267 267 268 269 270 271 271 272 273 275 276 276 276 277 279 281 282 283 282 282 281 282 283 284 284 284 284 285
253 255 253 250 252 253 255 257 257 257 259 261 263 264 265 266 267 269 271 270 271 273 274 274 274 275 277 278 278 278 279 280 281 281 281 281 280 281 282 283 283 283 283 283
251 255 255 254 252 250 252 254 257 260 262 262 265 267 267 267 268 270 271 270 272 273 273 274 276 277 278 278 278 277 279 280 280 280 281 283 282 281 280 280 281 281 281 282
254 256 258 256 250 249 251 254 258 261 262 264 267 268 268 268 270 270 272 273 273 274 274 275 276 277 278 279 278 279 279 280 280 281 283 284 284 283 283 283 282 282 283 283
256 255 251 249 250 253 254 256 259 262 262 264 266 268 268 268 268 271 274 275 274 274 275 275 276 277 279 279 279 280 280 281 281 282 283 283 282 283 285 286 286 285 285 285
260 259 252 248 251 254 253 254 257 260 262 265 267 268 268 269 270 272 274 275 275 276 277 278 278 278 279 280 280 281 281 282 283 283 283 283 283 283 284 284 284 285 285 285
260 256 255 253 250 249 251 254 257 259 262 264 266 268 269 272 271 270 273 275 277 278 279 281 281 282 282 282 282 282 283 284 283 282 281 281 282 282 283 283 283 284 286 288
256 256 257 252 251 253 253 255 258 261 262 264 266 269 270 272 273 275 276 278 279 279 281 282 283 282 283 284 285 284 284 284 284 283 283 282 282 283 283 284 284 285 285 286
Height
5879 5882 5884 5886 5888 5889 5891 5892 5893 5894 5895 5897 5898 5898 5898 5898 5898 5899 5899 5899 5899 5898 5897 5896 5895 5894 5893 5891 5889 5886 5884 5881 5879 5876 5873 5870 5868 5866 5864 5862 5859 5856 5854 5851
5873 5875 5878 5880 5882 5884 5885 5887 5887 5889 5890 5891 5892 5893 5893 5893 5893 5893 5894 5894 5894 5894 5892 5892 5891 5890 5889 5887 5885 5882 5880 5878 5875 5872 5870 5867 5865 5863 5860 5858 5855 5853 5850 5848
5866 5869 5871 5874 5877 5878 5880 5881 5882 5884 5886 5886 5887 5888 5889 5888 5888 5889 5889 5889 5888 5888 5887 5887 5887 5885 5884 5882 5881 5878 5876 5873 5870 5868 5866 5863 5861 5859 5857 5854 5851 5849 5846 5843
5858 5862 5864 5869 5870 5871 5873 5875 5876 5878 5879 5881 5882 5882 5883 5883 5883 5883 5884 5883 5883 5883 5883 5882 5881 5880 5879 5877 5875 5873 5871 5868 5866 5864 5862 5859 5857 5855 5852 5850 5847 5844 5841 5839
5850 5853 5856 5861 5863 5865 5866 5868 5870 5872 5874 5875 5876 5876 5877 5878 5878 5878 5878 5878 5877 5877 5877 5876 5875 5874 5873 5871 5869 5867 5865 5863 5861 5859 5857 5854 5852 5850 5847 5845 5842 5839 5837 5834
5842 5845 5848 5854 5856 5857 5859 5861 5864 5865 5866 5868 5869 5869 5871 5871 5871 5871 5871 5871 5871 5870 5870 5870 5869 5867 5866 5864 5863 5861 5859 5857 5855 5853 5851 5849 5847 5845 5842 5840 5837 5834 5831 5829
5834 5836 5840 5845 5848 5850 5852 5855 5856 5857 5858 5859 5861 5862 5864 5864 5864 5863 5863 5864 5864 5863 5863 5862 5861 5860 5859 5857 5857 5855 5854 5852 5850 5847 5845 5843 5841 5839 5836 5834 5831 5828 5826 5823
5826 5828 5834 5837 5839 5842 5844 5846 5848 5848 5850 5851 5853 5854 5854 5855 5855 5855 5855 5854 5855 5856 5855 5855 5854 5853 5852 5851 5850 5848 5847 5845 5843 5842 5839 5837 5835 5833 5830 5827 5825 5822 5819 5817
5818 5822 5825 5827 5830 5832 5834 5837 5839 5841 5842 5843 5844 5845 5846 5846 5847 5846 5846 5846 5847 5847 5846 5846 5846 5845 5845 5844 5842 5841 5839 5838 5836 5835 5833 5830 5828 5825 5822 5820 5817 5815 5812 5810
5810 5813 5816 5819 5821 5822 5825 5828 5829 5831 5833 5834 5835 5836 5837 5838 5838 5838 5838 5838 5839 5839 5839 5838 5838 5837 5836 5835 5835 5834 5832 5830 5829 5827 5825 5822 5820 5817 5815 5812 5810 5808 5805 5803
5802 5805 5807 5810 5812 5814 5816 5818 5820 5822 5823 5825 5826 5828 5828 5829 5829 5830 5831 5830 5830 5831 5830 5830 5829 5829 5828 5828 5827 5826 5824 5822 5821 5819 5817 5814 5812 5810 5807 5805 5802 5800 5798 5796
5794 5797 5798 5801 5803 5805 5806 5809 5811 5812 5814 5816 5817 5819 5820 5820 5821 5821 5822 5822 5822 5822 5822 5821 5821 5820 5820 5819 5819 5817 5816 5814 5812 5810 5808 5806 5804 5802 5800 5798 5795 5793 5790 5788
5785 5788 5789 5791 5793 5795 5797 5799 5801 5803 5804 5807 5808 5809 5810 5810 5811 5811 5812 5812 5813 5813 5812 5812 5812 5812 5811 5810 5809 5808 5807 5805 5803 5801 5799 5797 5796 5794 5792 5790 5788 5786 5783 5781
5777 5779 5780 5782 5783 5785 5787 5789 5791 5793 5794 5796 5798 5799 5800 5801 5801 5801 5802 5803 5803 5803 5803 5802 5802 5802 5802 5801 5800 5799 5797 5796 5794 5792 5790 5788 5787 5785 5784 5782 5780 5778 5776 5773
5768 5769 5771 5772 5774 5776 5778 5780 5781 5783 5784 5787 5788 5789 5790 5790 5791 5791 5791 5792 5792 5793 5793 5793 5793 5793 5792 5791 5790 5789 5788 5786 5785 5783 5781 5779 5778 5777 5775 5774 5772 5770 5768 5765
5759 5760 5761 5763 5765 5767 5768 5770 5772 5774 5776 5777 5778 5779 5780 5780 5781 5782 5782 5782 5783 5783 5784 5784 5784 5783 5782 5781 5780 5779 5778 5777 5775 5774 5772 5771 5769 5768 5767 5765 5763 5761 5759 5757
5750 5751 5752 5754 5756 5758 5759 5759 5761 5763 5765 5767 5768 5769 5770 5770 5771 5772 5772 5772 5773 5773 5774 5774 5774 5773 5772 5771 5770 5770 5769 5767 5766 5764 5763 5761 5760 5759 5757 5756 5753 5751 5749 5748
5740 5742 5743 5746 5748 5749 5750 5751 5752 5754 5755 5757 5758 5759 5760 5761 5761 5762 5763 5764 5764 5764 5764 5764 5764 5763 5763 5762 5761 5760 5759 5758 5757 5755 5754 5752 5751 5750 5748 5746 5744 5742 5740 5739
5732 5733 5735 5736 5738 5740 5741 5742 5743 5745 5746 5748 5749 5750 5751 5752 5752 5753 5754 5754 5754 5754 5755 5754 5754 5753 5753 5752 5751 5751 5750 5749 5748 5746 5745 5743 5742 5740 5739 5737 5736 5734 5732 5730
5724 5725 5726 5727 5729 5731 5733 5734 5735 5736 5738 5740 5741 5742 5742 5743 5743 5744 5745 5745 5745 5745 5745 5745 5744 5744 5743 5743 5742 5741 5740 5739 5738 5737 5735 5734 5733 5732 5730 5728 5727 5725 5723 5722
5717 5717 5717 5718 5721 5724 5726 5727 5729 5730 5731 5732 5733 5733 5734 5734 5734 5734 5735 5735 5735 5735 5735 5735 5735 5734 5734 5734 5733 5732 5731 5730 5729 5728 5726 5725 5724 5722 5721 5719 5718 5716 5714 5713
5711 5711 5712 5714 5716 5718 5720 5721 5723 5724 5724 5725 5725 5725 5725 5726 5726 5726 5726 5726 5726 5726 5726 5725 5725 5725 5725 5724 5724 5723 5722 5721 5720 5719 5718 5716 5715 5714 5712 5711 5709 5707 5705 5703
5707 5707 5709 5710 5711 5713 5715 5716 5717 5718 5718 5718 5718 5718 5718 5718 5718 5718 5719 5718 5717 5717 5716 5716 5716 5716 5716 5715 5715 5714 5714 5713 5712 5710 5709 5708 5706 5705 5703 5701 5700 5698 5696 5695
5702 5703 5704 5705 5707 5708 5710 5711 5712 5712 5712 5712 5712 5712 5712 5712 5711 5711 5711 5710 5709 5708 5708 5708 5707 5707 5707 5707 5706 5706 5705 5704 5703 5701 5700 5699 5697 5696 5694 5692 5691 5689 5687 5686
5699 5700 5700 5701 5702 5704 5705 5706 5706 5707 5707 5707 5706 5706 5706 5706 5705 5705 5704 5703 5702 5701 5701 5700 5700 5700 5699 5699 5698 5698 5697 5695 5694 5692 5691 5690 5688 5687 5685 5683 5682 5680 5678 5676
5696 5696 5697 5697 5698 5699 5700 5701 5701 5701 5701 5701 5701 5701 5701 5700 5699 5699 5698 5697 5696 5696 5695 5694 5693 5693 5692 5691 5690 5689 5688 5686 5685 5683 5682 5681 5679 5677 5676 5674 5672 5671 5669 5667
5692 5692 5693 5693 5694 5695 5696 5697 5697 5697 5697 5697 5697 5696 5696 5695 5694 5694 5693 5692 5690 5690 5689 5688 5687 5686 5685 5683 5682 5681 5679 5678 5676 5675 5673 5671 5670 5668 5666 5665 5663 5661 5660 5658